Regional Weather Roundup
Issued by NWS

Home | Current Version | Previous Version | Text Only | Print | Product List | Glossary On
Versions: 1 2 3 4 5 6 7 8 9 10 11 12 13 14 15 16 17 18 19 20 21 22 23 24 25 26 27 28 29 30 31 32 33 34 35 36 37 38 39 40 41 42 43 44 45 46 47 48 49 50
000
ASUS43 KLOT 010408
RWRIL

ILLINOIS REGIONAL WEATHER ROUNDUP
NATIONAL WEATHER SERVICE CHICAGO/ROMEOVILLE IL
1100 PM CDT MON AUG 31 2015

NOTE: "FAIR" INDICATES FEW OR NO CLOUDS BELOW 12,000 FEET WITH NO
SIGNIFICANT WEATHER AND/OR OBSTRUCTIONS TO VISIBILITY.

* THESE STATIONS ARE NOT UNDER NWS QUALITY CONTROL. THEY ALSO MAY NOT
  REPORT WEATHER SUCH AS PRECIPITATION OR FOG.

ILZ001-002-007-009-015-016-024-010500-
NORTHWEST ILLINOIS

CITY           SKY/WX    TMP DP  RH WIND       PRES   REMARKS
MOLINE         PTCLDY    76  71  85 S6        29.99S
STERLING*      CLEAR     75  72  88 SE5       29.99F
SAVANNA*       CLEAR     73  70  89 CALM      30.00S
$$

ILZ003-004-008-010-011-017-018-010500-
NORTH CENTRAL ILLINOIS

CITY           SKY/WX    TMP DP  RH WIND       PRES   REMARKS
ROCKFORD       CLEAR     73  68  84 CALM      30.04S
FREEPORT*      CLEAR     69  67  93 S5        30.04S
ROCHELLE*      CLEAR     70  68  94 S5        30.04S
DE KALB*       CLEAR     70  68  93 S6        30.05S
PERU*          CLEAR     77  69  76 S8        30.03S
$$

ILZ005-006-012>014-019>023-010500-
NORTHEAST ILLINOIS

CITY           SKY/WX    TMP DP  RH WIND       PRES   REMARKS
CHICAGO-OHARE  CLEAR     72  68  87 CALM      30.03F
CHICAGO-MIDWAY CLEAR     78  68  71 S3        30.04S HX  80
AURORA         CLEAR     70  67  90 CALM      30.04F FOG
LANSING*       CLEAR     72  68  88 S3        30.05S
JOLIET*        CLEAR     71  70  97 CALM      30.04S FOG
WAUKEGAN       CLEAR     66  66 100 CALM      30.04S FOG
DUPAGE AIRPORT CLEAR     70  67  90 CALM      30.04S FOG
KANKAKEE*      CLEAR     73  70  91 S5        30.06S
WHEELING       CLEAR     70  66  87 CALM      30.05S
MORRIS*        CLEAR     72  69  90 S5        30.03S
ROMEOVILLE*    CLEAR     73  69  88 S6        30.04S
NORTHERLY ISL    N/A     71  68  90 SE2         N/A
$$

LMZ740>746-010500-
SOUTHERN LAKE MICHIGAN

STATION/POSITION SKY/WX   TEMP    WIND        PRES    VSBY  WAVE
                          AIR SEA DIR/SP/G                  HT/PER
                          (F)     (DEG/KT/KT) (MB)    (MI)  (FT/S)
SOUTHERN BUOY              71 70  160/  8/  8 1016.9S         0
WILMETTE HARBOR            69 61  300/  4/  4   N/A           0
HARRISON CRIB              72     180/  5/  5   N/A
BURNHAM HARBOR             71     140/  1/  3   N/A
CALUMET HARBOR             73     150/  1/  2   N/A
BURNS HARBOR               78     160/  5/  7 1017.9R
MICHIGAN CITY              75     120/  5/  6   N/A
MICHIGAN CITY 6N           74 72  160/  4/  6   N/A           0
ST. JOSEPH                 74 73  190/  6/  8   N/A           1
$$

ILZ025>027-034>036-040-047-049-050-058-095>099-010500-
WEST-CENTRAL ILLINOIS

CITY           SKY/WX    TMP DP  RH WIND       PRES   REMARKS
QUINCY         CLEAR     77  72  84 SE7       30.01S
GALESBURG*     PTCLDY    75  70  85 SE5       30.02R
MACOMB*        PTCLDY    75  72  89 S5        30.03S
JACKSONVILLE*  CLEAR     79  73  81 S7        30.03F HX  83
PITTSFIELD*    CLEAR     76  71  85 S5        30.03F
$$

ILZ028>032-037-038-041>044-048-051>054-059>061-010500-
CENTRAL ILLINOIS

CITY           SKY/WX    TMP DP  RH WIND       PRES   REMARKS
PONTIAC        PTCLDY    77  73  87 S7        30.05S
BLOOMINGTON    CLEAR     75  73  93 S9        30.07S
DECATUR        PTCLDY    77  70  79 S8        30.06S
PEORIA         CLEAR     79  70  74 S7        30.03S HX  82
LACON*         CLEAR     75  70  85 S5        30.01S
LINCOLN*       CLEAR     76  70  83 S6        30.04S
SPRINGFIELD    CLEAR     79  71  76 S10       30.04S HX  82
TAYLORVILLE    CLEAR     73  70  88 S6        30.05F
$$

ILZ033-039-045-046-055>057-062-063-010500-
EAST-CENTRAL ILLINOIS

CITY           SKY/WX    TMP DP  RH WIND       PRES   REMARKS
CHAMPAIGN      CLEAR     71  68  90 SE5       30.07S
RANTOUL*       PTCLDY    73  70  89 CALM      30.07S
MATTOON        HAZE      76  68  76 S6        30.06S VSB 1/2
PARIS*         CLEAR     69  68  94 CALM      30.08S
$$

ILZ079-100>102-010500-
SOUTHWEST ILLINOIS

CITY           SKY/WX    TMP DP  RH WIND       PRES   REMARKS
ALTON          CLEAR     73  71  92 CALM      30.05S
BELLEVILLE     CLEAR     75  74  99 E2        30.05R
CAHOKIA*       CLEAR     77  72  84 S3        30.05R
SPARTA*        CLEAR     76  70  80 S5        30.07F
$$

ILZ064>066-069>071-074>076-080>082-084>086-088>090-092>094-010500-
SOUTH-CENTRAL ILLINOIS

CITY           SKY/WX    TMP DP  RH WIND       PRES   REMARKS
CARBONDALE     CLEAR     72  69  90 S3        30.07S
CAIRO*         CLEAR     70  70 100 CALM      30.07F
EFFINGHAM*     CLEAR     71  67  88 SE3       30.09S
MARION         CLEAR     75  72  88 CALM      30.09S
MT. VERNON     CLEAR     70  64  83 CALM      30.09S
SALEM*         CLEAR     75  70  83 SE3       30.08S
METROPOLIS*    CLEAR     69  69 100 CALM      30.09S FOG
$$

ILZ067-068-072-073-078-083-087-091-010500-
SOUTHEAST ILLINOIS

CITY           SKY/WX    TMP DP  RH WIND       PRES   REMARKS
LAWRENCEVILLE  CLEAR     71  67  87 CALM      30.09R
FLORA*         CLEAR     70  67  89 S3        30.08S
FAIRFIELD*     CLEAR     72  69  89 CALM      30.08R
HARRISBURG*    CLEAR     70  69  96 CALM      30.09S
ROBINSON*      CLEAR     68  66  93 S3        30.09S
CARMI*         CLEAR     68  67  96 S3        30.08S
$$

ABBREVIATIONS USED IN REMARKS
   TC - TEMPERATURE IN CELSIUS
  WCI - WIND CHILL INDEX
   HX - HEAT INDEX
  VSB - VISIBILITY
$$



USA.gov is the U.S. government's official web portal to all federal, state and local government web resources and services.